Time,TemperatureF,DewpointF,PressureIn,WindDirection,WindDirectionDegrees,WindSpeedMPH,WindSpeedGustMPH,Humidity,HourlyPrecipIn,Conditions,Clouds,dailyrainin,SoftwareType,DateUTC
2013-03-23 00:03:00,36.0,13.0,-100.00,WSW,258,1.0,2.0,40,0.00,,,0.00,,2013-03-23 04:03:00,
2013-03-23 00:13:00,36.0,13.0,-100.00,WSW,258,1.0,2.0,40,0.00,,,0.00,,2013-03-23 04:13:00,
2013-03-23 00:23:00,36.0,13.0,-100.00,WSW,250,2.0,2.0,38,0.00,,,0.00,,2013-03-23 04:23:00,
2013-03-23 00:32:00,36.0,13.0,-100.00,WSW,250,2.0,2.0,38,0.00,,,0.00,,2013-03-23 04:32:00,
2013-03-23 00:43:00,36.0,13.0,-100.00,WSW,250,2.0,2.0,38,0.00,,,0.00,,2013-03-23 04:43:00,
2013-03-23 00:53:00,36.0,13.0,-100.00,SW,233,1.0,2.0,39,0.00,,,0.00,,2013-03-23 04:53:00,
2013-03-23 01:02:00,36.0,12.0,-100.00,SW,227,1.0,2.0,38,0.00,,,0.00,,2013-03-23 05:02:00,
2013-03-23 01:12:00,36.0,12.0,-100.00,SW,227,1.0,2.0,38,0.00,,,0.00,,2013-03-23 05:12:00,
2013-03-23 01:22:00,35.0,14.0,-100.00,WSW,239,2.0,2.0,41,0.00,,,0.00,,2013-03-23 05:22:00,
2013-03-23 01:32:00,35.0,14.0,-100.00,WSW,239,2.0,2.0,41,0.00,,,0.00,,2013-03-23 05:32:00,
2013-03-23 01:42:00,35.0,14.0,-100.00,WSW,239,2.0,2.0,41,0.00,,,0.00,,2013-03-23 05:42:00,
2013-03-23 01:53:00,35.0,13.0,-100.00,WSW,250,2.0,2.0,39,0.00,,,0.00,,2013-03-23 05:53:00,
2013-03-23 02:02:00,35.0,13.0,-100.00,WSW,250,2.0,2.0,39,0.00,,,0.00,,2013-03-23 06:02:00,
2013-03-23 02:12:00,35.0,13.0,-100.00,WSW,250,2.0,2.0,39,0.00,,,0.00,,2013-03-23 06:12:00,
2013-03-23 02:22:00,35.0,12.0,-100.00,SW,216,0.0,2.0,38,0.00,,,0.00,,2013-03-23 06:22:00,
2013-03-23 02:32:00,36.0,12.0,-100.00,West,264,1.0,2.0,38,0.00,,,0.00,,2013-03-23 06:32:00,
2013-03-23 02:42:00,36.0,12.0,-100.00,West,264,1.0,2.0,38,0.00,,,0.00,,2013-03-23 06:42:00,
2013-03-23 02:52:00,36.0,11.0,-100.00,WSW,253,1.0,1.0,36,0.00,,,0.00,,2013-03-23 06:52:00,
2013-03-23 03:02:00,36.0,13.0,-100.00,WSW,257,2.0,4.0,39,0.00,,,0.00,,2013-03-23 07:02:00,
2013-03-23 03:12:00,36.0,13.0,-100.00,WSW,257,2.0,4.0,39,0.00,,,0.00,,2013-03-23 07:12:00,
2013-03-23 03:22:00,36.0,14.0,-100.00,WSW,254,1.0,2.0,40,0.00,,,0.00,,2013-03-23 07:22:00,
2013-03-23 03:32:00,36.0,13.0,-100.00,WSW,248,2.0,2.0,38,0.00,,,0.00,,2013-03-23 07:32:00,
2013-03-23 03:42:00,36.0,13.0,-100.00,WSW,248,2.0,2.0,38,0.00,,,0.00,,2013-03-23 07:42:00,
2013-03-23 03:52:00,36.0,15.0,-100.00,WSW,251,2.0,3.0,41,0.00,,,0.00,,2013-03-23 07:52:00,
2013-03-23 04:02:00,36.0,15.0,-100.00,WSW,251,2.0,3.0,41,0.00,,,0.00,,2013-03-23 08:02:00,
2013-03-23 04:13:00,36.0,15.0,-100.00,WSW,251,2.0,3.0,41,0.00,,,0.00,,2013-03-23 08:13:00,
2013-03-23 04:22:00,35.0,13.0,-100.00,SSW,209,0.0,0.0,40,0.00,,,0.00,,2013-03-23 08:22:00,
2013-03-23 04:32:00,35.0,12.0,-100.00,SSE,155,1.0,2.0,38,0.00,,,0.00,,2013-03-23 08:32:00,
2013-03-23 04:42:00,35.0,12.0,-100.00,SSE,155,1.0,2.0,38,0.00,,,0.00,,2013-03-23 08:42:00,
2013-03-23 04:53:00,35.0,13.0,-100.00,NE,44,2.0,2.0,39,0.00,,,0.00,,2013-03-23 08:53:00,
2013-03-23 05:02:00,36.0,18.0,-100.00,NNE,28,1.0,2.0,47,0.00,,,0.00,,2013-03-23 09:02:00,
2013-03-23 05:12:00,36.0,18.0,-100.00,NNE,28,1.0,2.0,47,0.00,,,0.00,,2013-03-23 09:12:00,
2013-03-23 05:22:00,37.0,19.0,-100.00,NNW,333,2.0,3.0,49,0.00,,,0.00,,2013-03-23 09:22:00,
2013-03-23 05:33:00,37.0,22.0,-100.00,SSW,206,0.0,0.0,54,0.00,,,0.00,,2013-03-23 09:33:00,
2013-03-23 05:43:00,37.0,22.0,-100.00,SSW,206,0.0,0.0,54,0.00,,,0.00,,2013-03-23 09:43:00,
2013-03-23 05:53:00,35.0,15.0,-100.00,SW,223,1.0,2.0,43,0.00,,,0.00,,2013-03-23 09:53:00,
2013-03-23 06:03:00,35.0,17.0,-100.00,West,274,1.0,1.0,46,0.00,,,0.00,,2013-03-23 10:03:00,
2013-03-23 06:13:00,35.0,17.0,-100.00,West,274,1.0,1.0,46,0.00,,,0.00,,2013-03-23 10:13:00,
2013-03-23 06:23:00,36.0,18.0,-100.00,NNW,346,2.0,2.0,48,0.00,,,0.00,,2013-03-23 10:23:00,
2013-03-23 06:34:00,36.0,23.0,-100.00,North,352,1.0,2.0,57,0.00,,,0.00,,2013-03-23 10:34:00,
2013-03-23 06:43:00,36.0,23.0,-100.00,North,352,1.0,2.0,57,0.00,,,0.00,,2013-03-23 10:43:00,
2013-03-23 06:53:00,36.0,21.0,-100.00,North,349,0.0,0.0,54,0.00,,,0.00,,2013-03-23 10:53:00,
2013-03-23 07:03:00,36.0,21.0,-100.00,North,349,0.0,0.0,54,0.00,,,0.00,,2013-03-23 11:03:00,
2013-03-23 07:12:00,36.0,21.0,-100.00,North,349,0.0,0.0,54,0.00,,,0.00,,2013-03-23 11:12:00,
2013-03-23 07:22:00,37.0,22.0,-100.00,NE,48,1.0,2.0,55,0.00,,,0.00,,2013-03-23 11:22:00,
2013-03-23 07:32:00,36.0,22.0,-100.00,WSW,237,0.0,1.0,55,0.00,,,0.00,,2013-03-23 11:32:00,
2013-03-23 07:42:00,36.0,22.0,-100.00,WSW,237,0.0,1.0,55,0.00,,,0.00,,2013-03-23 11:42:00,
2013-03-23 07:52:00,35.0,22.0,-100.00,West,263,2.0,3.0,58,0.00,,,0.00,,2013-03-23 11:52:00,
2013-03-23 08:02:00,35.0,19.0,-100.00,North,3,0.0,1.0,52,0.00,,,0.00,,2013-03-23 12:02:00,
2013-03-23 08:13:00,35.0,19.0,-100.00,North,3,0.0,1.0,52,0.00,,,0.00,,2013-03-23 12:13:00,
2013-03-23 08:22:00,36.0,22.0,-100.00,NE,51,1.0,2.0,56,0.00,,,0.00,,2013-03-23 12:22:00,
2013-03-23 08:33:00,37.0,21.0,-100.00,West,261,0.0,1.0,53,0.00,,,0.00,,2013-03-23 12:33:00,
2013-03-23 08:42:00,37.0,21.0,-100.00,West,261,0.0,1.0,53,0.00,,,0.00,,2013-03-23 12:42:00,
2013-03-23 08:53:00,36.0,22.0,-100.00,ESE,123,0.0,2.0,57,0.00,,,0.00,,2013-03-23 12:53:00,
2013-03-23 09:03:00,36.0,22.0,-100.00,ESE,123,0.0,2.0,57,0.00,,,0.00,,2013-03-23 13:03:00,
2013-03-23 09:12:00,36.0,22.0,-100.00,ESE,123,0.0,2.0,57,0.00,,,0.00,,2013-03-23 13:12:00,
2013-03-23 09:23:00,36.0,21.0,-100.00,ENE,65,0.0,1.0,54,0.00,,,0.00,,2013-03-23 13:23:00,
2013-03-23 09:33:00,36.0,21.0,-100.00,ENE,65,0.0,1.0,54,0.00,,,0.00,,2013-03-23 13:33:00,
2013-03-23 09:43:00,36.0,21.0,-100.00,ENE,65,0.0,1.0,54,0.00,,,0.00,,2013-03-23 13:43:00,
2013-03-23 09:53:00,36.0,26.0,-100.00,NE,56,1.0,2.0,66,0.00,,,0.00,,2013-03-23 13:53:00,
2013-03-23 10:03:00,36.0,25.0,-100.00,South,179,1.0,2.0,63,0.00,,,0.00,,2013-03-23 14:03:00,
2013-03-23 10:12:00,36.0,25.0,-100.00,South,179,1.0,2.0,63,0.00,,,0.00,,2013-03-23 14:12:00,
2013-03-23 10:23:00,36.0,24.0,-100.00,South,181,1.0,2.0,60,0.00,,,0.00,,2013-03-23 14:23:00,
2013-03-23 10:32:00,37.0,23.0,-100.00,SSE,152,1.0,2.0,56,0.00,,,0.00,,2013-03-23 14:32:00,
2013-03-23 10:43:00,37.0,23.0,-100.00,SSE,152,1.0,2.0,56,0.00,,,0.00,,2013-03-23 14:43:00,
2013-03-23 10:53:00,38.0,23.0,-100.00,South,172,0.0,1.0,56,0.00,,,0.00,,2013-03-23 14:53:00,
2013-03-23 11:03:00,38.0,23.0,-100.00,South,182,1.0,2.0,55,0.00,,,0.00,,2013-03-23 15:03:00,
2013-03-23 11:13:00,39.0,24.0,-100.00,South,181,1.0,2.0,54,0.00,,,0.00,,2013-03-23 15:13:00,
2013-03-23 11:22:00,39.0,24.0,-100.00,South,181,1.0,2.0,54,0.00,,,0.00,,2013-03-23 15:22:00,
2013-03-23 11:33:00,38.0,23.0,-100.00,South,189,1.0,2.0,54,0.00,,,0.00,,2013-03-23 15:33:00,
2013-03-23 11:44:00,38.0,23.0,-100.00,South,189,1.0,2.0,54,0.00,,,0.00,,2013-03-23 15:44:00,
2013-03-23 11:53:00,38.0,22.0,-100.00,South,176,1.0,2.0,52,0.00,,,0.00,,2013-03-23 15:53:00,
2013-03-23 12:03:00,39.0,22.0,-100.00,SSE,162,2.0,3.0,50,0.00,,,0.00,,2013-03-23 16:03:00,
2013-03-23 12:13:00,39.0,22.0,-100.00,SSE,162,2.0,3.0,50,0.00,,,0.00,,2013-03-23 16:13:00,
2013-03-23 12:23:00,39.0,23.0,-100.00,South,174,2.0,3.0,51,0.00,,,0.00,,2013-03-23 16:23:00,
2013-03-23 12:33:00,40.0,24.0,-100.00,South,182,2.0,3.0,52,0.00,,,0.00,,2013-03-23 16:33:00,
2013-03-23 12:43:00,40.0,24.0,-100.00,South,182,2.0,3.0,52,0.00,,,0.00,,2013-03-23 16:43:00,
2013-03-23 12:54:00,40.0,24.0,-100.00,SSW,205,2.0,4.0,52,0.00,,,0.00,,2013-03-23 16:54:00,
2013-03-23 13:03:00,42.0,26.0,-100.00,SW,220,1.0,3.0,52,0.00,,,0.00,,2013-03-23 17:03:00,
2013-03-23 13:12:00,42.0,26.0,-100.00,SW,220,1.0,3.0,52,0.00,,,0.00,,2013-03-23 17:12:00,
2013-03-23 13:23:00,42.0,27.0,-100.00,ESE,109,1.0,2.0,55,0.00,,,0.00,,2013-03-23 17:23:00,
2013-03-23 13:33:00,43.0,27.0,-100.00,ESE,116,1.0,3.0,53,0.00,,,0.00,,2013-03-23 17:33:00,
2013-03-23 13:43:00,43.0,27.0,-100.00,ESE,116,1.0,3.0,53,0.00,,,0.00,,2013-03-23 17:43:00,
2013-03-23 13:53:00,44.0,28.0,-100.00,South,175,2.0,3.0,52,0.00,,,0.00,,2013-03-23 17:53:00,
2013-03-23 14:03:00,44.0,28.0,-100.00,South,175,2.0,3.0,52,0.00,,,0.00,,2013-03-23 18:03:00,
2013-03-23 14:12:00,44.0,28.0,-100.00,South,175,2.0,3.0,52,0.00,,,0.00,,2013-03-23 18:12:00,
2013-03-23 14:23:00,44.0,29.0,-100.00,South,182,2.0,4.0,55,0.00,,,0.00,,2013-03-23 18:23:00,
2013-03-23 14:32:00,44.0,29.0,-100.00,SSE,152,2.0,4.0,56,0.00,,,0.00,,2013-03-23 18:32:00,
2013-03-23 14:43:00,44.0,29.0,-100.00,SSE,152,2.0,4.0,56,0.00,,,0.00,,2013-03-23 18:43:00,
2013-03-23 14:53:00,44.0,29.0,-100.00,SSE,152,2.0,4.0,56,0.00,,,0.00,,2013-03-23 18:53:00,
2013-03-23 15:03:00,46.0,30.0,-100.00,South,182,2.0,3.0,54,0.00,,,0.00,,2013-03-23 19:03:00,
2013-03-23 15:13:00,46.0,30.0,-100.00,South,182,2.0,3.0,54,0.00,,,0.00,,2013-03-23 19:13:00,
2013-03-23 15:23:00,46.0,30.0,-100.00,SE,127,4.0,7.0,53,0.00,,,0.00,,2013-03-23 19:23:00,
2013-03-23 15:32:00,46.0,30.0,-100.00,East,89,5.0,8.0,54,0.00,,,0.00,,2013-03-23 19:32:00,
2013-03-23 15:42:00,46.0,30.0,-100.00,East,89,5.0,8.0,54,0.00,,,0.00,,2013-03-23 19:42:00,
2013-03-23 15:53:00,47.0,31.0,-100.00,SSE,154,4.0,6.0,54,0.00,,,0.00,,2013-03-23 19:53:00,
2013-03-23 16:03:00,48.0,31.0,-100.00,ESE,113,3.0,5.0,51,0.00,,,0.00,,2013-03-23 20:03:00,
2013-03-23 16:13:00,48.0,31.0,-100.00,ESE,113,3.0,5.0,51,0.00,,,0.00,,2013-03-23 20:13:00,
2013-03-23 16:23:00,48.0,30.0,-100.00,ESE,103,5.0,8.0,49,0.00,,,0.00,,2013-03-23 20:23:00,
2013-03-23 16:32:00,48.0,31.0,-100.00,ENE,69,6.0,9.0,51,0.00,,,0.00,,2013-03-23 20:32:00,
2013-03-23 16:43:00,48.0,32.0,-100.00,ENE,76,7.0,11.0,53,0.00,,,0.00,,2013-03-23 20:43:00,
2013-03-23 16:53:00,48.0,32.0,-100.00,ENE,76,7.0,11.0,53,0.00,,,0.00,,2013-03-23 20:53:00,
2013-03-23 17:02:00,48.0,31.0,-100.00,ENE,72,8.0,13.0,53,0.00,,,0.00,,2013-03-23 21:02:00,
2013-03-23 17:12:00,48.0,31.0,-100.00,ENE,72,8.0,13.0,53,0.00,,,0.00,,2013-03-23 21:12:00,
2013-03-23 17:22:00,48.0,32.0,-100.00,East,80,4.0,7.0,53,0.00,,,0.00,,2013-03-23 21:22:00,
2013-03-23 17:33:00,48.0,32.0,-100.00,East,86,4.0,7.0,54,0.00,,,0.00,,2013-03-23 21:33:00,
2013-03-23 17:43:00,48.0,32.0,-100.00,East,86,4.0,7.0,54,0.00,,,0.00,,2013-03-23 21:43:00,
2013-03-23 17:54:00,48.0,32.0,-100.00,East,86,4.0,7.0,54,0.00,,,0.00,,2013-03-23 21:54:00,
2013-03-23 18:03:00,49.0,34.0,-100.00,East,95,3.0,6.0,55,0.00,,,0.00,,2013-03-23 22:03:00,
2013-03-23 18:13:00,49.0,34.0,-100.00,East,95,3.0,6.0,55,0.00,,,0.00,,2013-03-23 22:13:00,
2013-03-23 18:23:00,49.0,35.0,-100.00,East,79,4.0,8.0,56,0.00,,,0.00,,2013-03-23 22:23:00,
2013-03-23 18:33:00,48.0,35.0,-100.00,East,88,4.0,6.0,59,0.00,,,0.00,,2013-03-23 22:33:00,
2013-03-23 18:42:00,48.0,35.0,-100.00,East,88,4.0,6.0,59,0.00,,,0.00,,2013-03-23 22:42:00,
2013-03-23 18:53:00,49.0,35.0,-100.00,ESE,112,3.0,5.0,59,0.00,,,0.00,,2013-03-23 22:53:00,
2013-03-23 19:02:00,48.0,34.0,-100.00,ENE,62,5.0,8.0,58,0.00,,,0.00,,2013-03-23 23:02:00,
2013-03-23 19:13:00,48.0,34.0,-100.00,ENE,62,5.0,8.0,58,0.00,,,0.00,,2013-03-23 23:13:00,
2013-03-23 19:23:00,48.0,33.0,-100.00,NE,44,3.0,4.0,57,0.00,,,0.00,,2013-03-23 23:23:00,
2013-03-23 19:33:00,48.0,33.0,-100.00,NE,44,3.0,4.0,57,0.00,,,0.00,,2013-03-23 23:33:00,
2013-03-23 19:43:00,48.0,33.0,-100.00,NE,44,3.0,4.0,57,0.00,,,0.00,,2013-03-23 23:43:00,
2013-03-23 19:53:00,48.0,33.0,-100.00,NE,44,3.0,4.0,57,0.00,,,0.00,,2013-03-23 23:53:00,
2013-03-23 20:02:00,47.0,33.0,-100.00,NNE,32,2.0,4.0,58,0.00,,,0.00,,2013-03-24 00:02:00,
2013-03-23 20:13:00,47.0,33.0,-100.00,NNE,32,2.0,4.0,58,0.00,,,0.00,,2013-03-24 00:13:00,
2013-03-23 20:23:00,46.0,32.0,-100.00,NNE,17,3.0,4.0,58,0.00,,,0.00,,2013-03-24 00:23:00,
2013-03-23 20:33:00,46.0,32.0,-100.00,NNE,30,3.0,4.0,59,0.00,,,0.00,,2013-03-24 00:33:00,
2013-03-23 20:42:00,46.0,32.0,-100.00,NNE,30,3.0,4.0,59,0.00,,,0.00,,2013-03-24 00:42:00,
2013-03-23 20:53:00,46.0,33.0,-100.00,NNE,16,3.0,4.0,60,0.00,,,0.00,,2013-03-24 00:53:00,
2013-03-23 21:02:00,46.0,33.0,-100.00,NNE,30,4.0,6.0,60,0.00,,,0.00,,2013-03-24 01:02:00,
2013-03-23 21:12:00,46.0,33.0,-100.00,NNE,30,4.0,6.0,60,0.00,,,0.00,,2013-03-24 01:12:00,
2013-03-23 21:22:00,46.0,33.0,-100.00,NNE,32,5.0,7.0,60,0.00,,,0.00,,2013-03-24 01:22:00,
2013-03-23 21:33:00,46.0,32.0,-100.00,NNE,28,5.0,6.0,58,0.00,,,0.00,,2013-03-24 01:33:00,
2013-03-23 21:43:00,46.0,32.0,-100.00,NNE,28,5.0,6.0,58,0.00,,,0.00,,2013-03-24 01:43:00,
2013-03-23 21:53:00,46.0,32.0,-100.00,NNE,31,5.0,8.0,59,0.00,,,0.00,,2013-03-24 01:53:00,
2013-03-23 22:03:00,45.0,32.0,-100.00,NE,38,5.0,8.0,58,0.00,,,0.00,,2013-03-24 02:03:00,
2013-03-23 22:12:00,45.0,32.0,-100.00,NE,38,5.0,8.0,58,0.00,,,0.00,,2013-03-24 02:12:00,
2013-03-23 22:22:00,45.0,32.0,-100.00,NE,55,5.0,6.0,59,0.00,,,0.00,,2013-03-24 02:22:00,
2013-03-23 22:32:00,45.0,31.0,-100.00,NNE,30,6.0,9.0,58,0.00,,,0.00,,2013-03-24 02:32:00,
2013-03-23 22:42:00,45.0,31.0,-100.00,NNE,30,6.0,9.0,58,0.00,,,0.00,,2013-03-24 02:42:00,
2013-03-23 22:52:00,44.0,32.0,-100.00,NNE,24,7.0,10.0,63,0.00,,,0.00,,2013-03-24 02:52:00,
2013-03-23 23:03:00,44.0,32.0,-100.00,NNE,24,7.0,10.0,63,0.00,,,0.00,,2013-03-24 03:03:00,
2013-03-23 23:13:00,44.0,32.0,-100.00,NNE,24,7.0,10.0,63,0.00,,,0.00,,2013-03-24 03:13:00,
2013-03-23 23:23:00,44.0,32.0,-100.00,NE,49,9.0,14.0,61,0.00,,,0.00,,2013-03-24 03:23:00,
2013-03-23 23:33:00,44.0,31.0,-100.00,NE,40,7.0,9.0,58,0.00,,,0.00,,2013-03-24 03:33:00,
2013-03-23 23:42:00,44.0,31.0,-100.00,NE,40,7.0,9.0,58,0.00,,,0.00,,2013-03-24 03:42:00,
2013-03-23 23:53:00,44.0,30.0,-100.00,NNE,23,8.0,11.0,60,0.00,,,0.00,,2013-03-24 03:53:00,